Weather History for KCWI - June, 2013

Change the Weather History Date:

Saturday, June 29, 2013

  Actual Average Record
Temperature  
Mean Temperature 66 °F -  
Max Temperature 71 °F 84 °F 97 °F (1952)
Min Temperature 62 °F 63 °F 51 °F (1999)
Cooling Degree Days 2    
Growing Degree Days 16 (Base 50)    
Moisture  
Dew Point 56 °F    
Average Humidity 72    
Maximum Humidity 77    
Minimum Humidity 60    
Precipitation  
Precipitation 0.20 in - - ()
Sea Level Pressure  
Sea Level Pressure 29.74 in    
Wind  
Wind Speed 9 mph (North)    
Max Wind Speed 21 mph    
Max Gust Speed 28 mph    
Visibility 10 miles    
Events Thunderstorm    
Averages and records for this station are not official NWS values.
T = Trace of Precipitation, MM = Missing Value Source: NWS Daily Summary

Daily Weather History Graph

Daily Weather History Graph

Search for Another Location

Airport or City:

Trip Planner

Search our weather history database for the weather conditions in past years. The results will help you decide how hot, cold, wet, or windy it might be!

Date:

Astronomy

Jun. 29, 2013 Rise Set
Actual Time 5:29 AM CDT 8:40 PM CDT
Civil Twilight 4:55 AM CDT 9:14 PM CDT
Nautical Twilight 4:11 AM CDT 9:58 PM CDT
Astronomical Twilight 3:18 AM CDT 10:50 PM CDT
Moon 12:02 AM CDT (6/29) 12:48 PM CDT (6/29)
Length of Visible Light 16h 19m
Length of Day
15h 11m
Waning Gibbous, 55% of the Moon is Illuminated
Jun 29
Waning Gibbous
Jun 29
Last Quarter
Jul 8
New
Jul 15
First Quarter
Jul 22
Full

Hourly Weather History & Observations

Time (CDT) Temp. Dew Point Humidity Pressure Visibility Wind Dir Wind Speed Gust Speed Precip Events Conditions
12:15 AM 64.4 °F 55.4 °F 73% 29.69 in 10.0 mi NW 6.9 mph - N/A   Clear
12:35 AM 64.4 °F 55.4 °F 73% 29.69 in 10.0 mi WNW 6.9 mph - N/A   Clear
12:55 AM 64.4 °F 53.6 °F 68% 29.69 in 10.0 mi WNW 8.1 mph - N/A   Clear
1:15 AM 64.4 °F 55.4 °F 73% 29.68 in 10.0 mi NW 8.1 mph - N/A   Mostly Cloudy
1:35 AM 64.4 °F 55.4 °F 73% 29.68 in 10.0 mi WNW 6.9 mph - N/A   Scattered Clouds
1:55 AM 62.6 °F 55.4 °F 77% 29.68 in 10.0 mi NW 5.8 mph - N/A   Clear
2:15 AM 62.6 °F 55.4 °F 77% 29.68 in 10.0 mi NW 6.9 mph - N/A   Clear
2:35 AM 62.6 °F 55.4 °F 77% 29.68 in 10.0 mi NW 8.1 mph - N/A   Scattered Clouds
2:55 AM 62.6 °F 55.4 °F 77% 29.68 in 10.0 mi NNW 8.1 mph - N/A   Scattered Clouds
3:15 AM 64.4 °F 55.4 °F 73% 29.67 in 10.0 mi NW 9.2 mph - N/A   Clear
3:35 AM 62.6 °F 55.4 °F 77% 29.67 in 10.0 mi NW 8.1 mph - N/A   Clear
3:55 AM 62.6 °F 55.4 °F 77% 29.67 in 10.0 mi NW 9.2 mph - N/A   Clear
4:15 AM 62.6 °F 55.4 °F 77% 29.68 in 10.0 mi NNW 8.1 mph - N/A   Partly Cloudy
4:35 AM 64.4 °F 55.4 °F 73% 29.68 in 10.0 mi NNW 8.1 mph - N/A   Mostly Cloudy
4:55 AM 64.4 °F 55.4 °F 73% 29.68 in 10.0 mi NNW 6.9 mph - N/A   Overcast
5:15 AM 64.4 °F 55.4 °F 73% 29.68 in 10.0 mi NNW 6.9 mph - N/A   Overcast
5:35 AM 64.4 °F 57.2 °F 77% 29.69 in 10.0 mi NW 6.9 mph - N/A   Overcast
5:55 AM 64.4 °F 57.2 °F 77% 29.69 in 10.0 mi NNW 4.6 mph - N/A   Overcast
6:15 AM 64.4 °F 57.2 °F 77% 29.69 in 10.0 mi WNW 5.8 mph - N/A   Overcast
6:35 AM 64.4 °F 57.2 °F 77% 29.69 in 10.0 mi NW 4.6 mph - N/A   Overcast
6:55 AM 64.4 °F 57.2 °F 77% 29.70 in 10.0 mi NW 4.6 mph - N/A   Overcast
7:15 AM 66.2 °F 57.2 °F 73% 29.70 in 10.0 mi NW 5.8 mph - N/A   Overcast
7:35 AM 66.2 °F 57.2 °F 73% 29.70 in 10.0 mi NNW 6.9 mph - N/A   Overcast
7:55 AM 66.2 °F 57.2 °F 73% 29.71 in 10.0 mi NW 9.2 mph - N/A   Overcast
8:15 AM 66.2 °F 57.2 °F 73% 29.71 in 10.0 mi North 11.5 mph - N/A   Mostly Cloudy
8:35 AM 66.2 °F 57.2 °F 73% 29.71 in 10.0 mi NNW 11.5 mph - N/A   Mostly Cloudy
8:55 AM 66.2 °F 57.2 °F 73% 29.71 in 10.0 mi NNW 11.5 mph 17.3 mph N/A   Scattered Clouds
9:15 AM 66.2 °F 57.2 °F 73% 29.71 in 10.0 mi North 16.1 mph - N/A   Partly Cloudy
9:35 AM 66.2 °F 57.2 °F 73% 29.70 in 10.0 mi North 13.8 mph - N/A   Clear
9:55 AM 68.0 °F 57.2 °F 68% 29.70 in 10.0 mi North 12.7 mph - N/A   Partly Cloudy
10:15 AM 68.0 °F 57.2 °F 68% 29.70 in 10.0 mi NNW 16.1 mph - N/A   Scattered Clouds
10:35 AM 66.2 °F 57.2 °F 73% 29.70 in 10.0 mi North 11.5 mph - N/A   Mostly Cloudy
10:55 AM 68.0 °F 57.2 °F 68% 29.70 in 10.0 mi NNW 10.4 mph - N/A   Mostly Cloudy
11:15 AM 69.8 °F 57.2 °F 64% 29.71 in 10.0 mi NNW 18.4 mph 26.5 mph N/A   Mostly Cloudy
11:35 AM 66.2 °F 57.2 °F 73% 29.71 in 10.0 mi North 16.1 mph - 0.03 in   Overcast
11:55 AM 66.2 °F 57.2 °F 73% 29.72 in 10.0 mi NNE 16.1 mph 20.7 mph 0.03 in Thunderstorm Mostly Cloudy
12:15 PM 69.8 °F 57.2 °F 64% 29.72 in 10.0 mi NNE 18.4 mph 21.9 mph N/A   Mostly Cloudy
12:35 PM 68.0 °F 57.2 °F 68% 29.71 in 10.0 mi NNE 13.8 mph - N/A   Mostly Cloudy
12:55 PM 68.0 °F 57.2 °F 68% 29.72 in 10.0 mi NE 12.7 mph - N/A   Scattered Clouds
1:15 PM 69.8 °F 57.2 °F 64% 29.72 in 10.0 mi NNE 13.8 mph - N/A   Mostly Cloudy
1:35 PM 71.6 °F 57.2 °F 60% 29.72 in 10.0 mi NE 15.0 mph 21.9 mph N/A   Mostly Cloudy
1:55 PM 69.8 °F 57.2 °F 64% 29.73 in 10.0 mi NNE 13.8 mph - N/A   Mostly Cloudy
2:15 PM 68.0 °F 57.2 °F 68% 29.73 in 10.0 mi NE 11.5 mph 20.7 mph 0.01 in   Mostly Cloudy
2:35 PM 71.6 °F 59.0 °F 64% 29.72 in 10.0 mi NE 13.8 mph - 0.01 in   Scattered Clouds
2:55 PM 66.2 °F 57.2 °F 73% 29.74 in 8.0 mi NNE 16.1 mph 21.9 mph 0.07 in   Mostly Cloudy
3:15 PM 64.4 °F 55.4 °F 73% 29.74 in 10.0 mi ENE 12.7 mph - 0.04 in Thunderstorm Mostly Cloudy
3:35 PM 66.2 °F 57.2 °F 73% 29.75 in 10.0 mi ENE 12.7 mph - 0.04 in   Partly Cloudy
3:55 PM 68.0 °F 57.2 °F 68% 29.75 in 10.0 mi ENE 12.7 mph - 0.04 in   Clear
4:15 PM 69.8 °F 57.2 °F 64% 29.75 in 10.0 mi ENE 13.8 mph - N/A   Partly Cloudy
4:35 PM 69.8 °F 57.2 °F 64% 29.75 in 10.0 mi NE 12.7 mph - N/A   Partly Cloudy
4:55 PM 69.8 °F 57.2 °F 64% 29.76 in 10.0 mi NNE 11.5 mph - N/A   Partly Cloudy
5:15 PM 69.8 °F 57.2 °F 64% 29.77 in 10.0 mi North 20.7 mph 27.6 mph N/A Thunderstorm Mostly Cloudy
5:35 PM 64.4 °F 55.4 °F 73% 29.76 in 10.0 mi North 12.7 mph - 0.05 in   Overcast
5:55 PM 64.4 °F 55.4 °F 73% 29.77 in 10.0 mi North 13.8 mph - 0.06 in   Overcast
6:15 PM 64.4 °F 57.2 °F 77% 29.77 in 10.0 mi North 12.7 mph - N/A   Mostly Cloudy
6:35 PM 64.4 °F 57.2 °F 77% 29.78 in 10.0 mi North 12.7 mph - N/A   Partly Cloudy
6:55 PM 66.2 °F 57.2 °F 73% 29.78 in 10.0 mi NNE 9.2 mph - N/A   Partly Cloudy
7:15 PM 66.2 °F 57.2 °F 73% 29.79 in 10.0 mi North 9.2 mph - N/A   Partly Cloudy
7:35 PM 66.2 °F 55.4 °F 68% 29.80 in 10.0 mi North 10.4 mph - N/A   Scattered Clouds
7:55 PM 64.4 °F 55.4 °F 73% 29.80 in 10.0 mi North 9.2 mph - N/A   Mostly Cloudy
8:15 PM 64.4 °F 55.4 °F 73% 29.81 in 10.0 mi North 11.5 mph - N/A   Mostly Cloudy
8:35 PM 64.4 °F 55.4 °F 73% 29.81 in 10.0 mi North 10.4 mph - N/A   Mostly Cloudy
8:55 PM 64.4 °F 55.4 °F 73% 29.81 in 10.0 mi North 10.4 mph - N/A   Mostly Cloudy
9:15 PM 64.4 °F 55.4 °F 73% 29.82 in 10.0 mi NNW 9.2 mph - N/A   Scattered Clouds
9:35 PM 64.4 °F 55.4 °F 73% 29.83 in 10.0 mi North 8.1 mph - N/A   Clear
9:55 PM 64.4 °F 55.4 °F 73% 29.83 in 10.0 mi North 9.2 mph - N/A   Partly Cloudy
10:15 PM 64.4 °F 55.4 °F 73% 29.85 in 10.0 mi North 9.2 mph - N/A   Scattered Clouds
10:35 PM 64.4 °F 55.4 °F 73% 29.84 in 10.0 mi North 9.2 mph - N/A   Scattered Clouds
10:55 PM 64.4 °F 55.4 °F 73% 29.84 in 10.0 mi North 8.1 mph - N/A   Partly Cloudy
11:15 PM 64.4 °F 55.4 °F 73% 29.84 in 10.0 mi North 9.2 mph - N/A   Partly Cloudy
11:35 PM 64.4 °F 53.6 °F 68% 29.84 in 10.0 mi North 9.2 mph - N/A   Partly Cloudy
11:55 PM 64.4 °F 53.6 °F 68% 29.85 in 10.0 mi North 10.4 mph - N/A   Partly Cloudy